Regional Weather Roundup
Issued by NWS

Home | Current Version | Previous Version | Text Only | Print | Product List | Glossary On
Versions: 1 2 3 4 5 6 7 8 9 10 11 12 13 14 15 16 17 18 19 20 21 22 23 24 25 26 27 28 29 30 31 32 33 34 35 36 37 38 39 40 41 42 43 44 45 46 47 48 49
000
ASUS46 KPQR 290410
RWROR

OREGON REGIONAL WEATHER ROUNDUP
NATIONAL WEATHER SERVICE PORTLAND OR
900 PM PDT SAT MAR 28 2015

NOTE: "FAIR" INDICATES FEW OR NO CLOUDS BELOW 12,000 FEET WITH
NO SIGNIFICANT WEATHER AND/OR OBSTRUCTIONS TO VISIBILITY.

ORZ001>013-290500-
NORTHWEST OREGON


CITY           SKY/WX    TMP DP  RH WIND       PRES   REMARKS
ASTORIA        MOCLDY    52  45  77 S3        30.34R
NEWPORT        CLOUDY    46  45  93 E3        30.37S
PORTLAND       PTCLDY    54  43  66 E5        30.33F
VANCOUVER WA   PTCLDY    54  41  61 CALM      30.32F
SCAPPOOSE      PTCLDY    51  44  77 NW3       30.32F
HILLSBORO      MOCLDY    52  44  74 CALM      30.32F
AURORA         MOCLDY    52  42  69 CALM      30.34F
MCMINNVILLE    CLOUDY    55  46  71 CALM      30.33F
SALEM          CLOUDY    53  44  71 CALM      30.32S
CORVALLIS      CLOUDY    52  46  82 NW5       30.34S
EUGENE         MOCLDY    51  41  68 NE3       30.33S
$$

ORZ021-028-290500-
SOUTHWEST OREGON


CITY           SKY/WX    TMP DP  RH WIND       PRES   REMARKS
NORTH BEND     MOCLDY    52  46  82 N5        30.35F
BROOKINGS      PTCLDY    52  52 100 CALM      30.29R
ROSEBURG       PTCLDY    56  39  53 CALM      30.31R
SEXTON SUMMIT  PTCLDY    45  33  63 N9        30.30R
MEDFORD        CLEAR     55  33  43 SW6       30.27R
$$

ORZ014>016-041-290500-
COLUMBIA GORGE


CITY           SKY/WX    TMP DP  RH WIND       PRES   REMARKS
TROUTDALE      MOCLDY    53  42  66 CALM      30.32F
THE DALLES     MOCLDY    55  39  54 NW8       30.31S
$$

ORZ029>031-041-044-049-050-061>064-502-503-505>511-290500-
EASTERN OREGON


CITY           SKY/WX    TMP DP  RH WIND       PRES   REMARKS
REDMOND        PTCLDY    41  27  57 CALM      30.31R
BEND           PTCLDY    41  28  60 CALM      30.31R
PRINEVILLE     PTCLDY    41  28  60 N5        30.31R
KLAMATH FALLS  CLEAR     44  26  49 CALM      30.29R
LAKEVIEW       CLEAR     37  21  52 NW10      30.30R WCI  30
HERMISTON      CLEAR     48  36  63 SE8       30.30S
PENDLETON      CLEAR     47  37  68 S7        30.32R
JOHN DAY       CLEAR     47  32  56 E5        30.32R
MEACHAM        CLEAR     35  31  85 CALM      30.33R
LA GRANDE      CLEAR     43  27  52 SW3       30.32R
BAKER CITY     CLEAR     38  30  73 W5        30.33R WCI  34
BURNS          PTCLDY    39  26  59 NE6       30.32R WCI  35
ROME             N/A     48  14  25 E8        30.30R
ONTARIO        CLEAR     51  30  44 CALM      30.30R
$$


USA.gov is the U.S. government's official web portal to all federal, state and local government web resources and services.